GW1129 Weather Reports


Display with metric or nautical units.
time (UTC)temp
F
wind
direction
speed
MPH
gust
MPH
rain 1hr
in
rain 24hr
in
rain mn
in
humidity
%
barometer
mb
20260507054620 54 0 1.0 4.0 0.07 0.21 0.07 40 1010.9
20260507053104 55 0 0.0 3.0 0.06 0.20 0.06 39 1011.1
20260507051558 55 0 0.0 8.0 0.05 0.19 0.05 49 1010.7
20260507050104 57 347 1.0 9.0 0.03 0.17 0.03 61 1010.7
20260507044604 57 257 1.0 5.0 0.00 0.14 0.00 68 1010.2
20260507043057 58 269 2.0 4.0 0.00 0.14 0.00 70 1010.5
20260507041558 58 23 0.0 5.0 0.00 0.14 0.00 71 1010.1
20260507040058 59 222 1.0 9.0 0.00 0.14 0.00 72 1010.1
20260507034602 59 210 1.0 5.0 0.00 0.14 0.14 72 1010.4
20260507033056 60 244 2.0 9.0 0.00 0.14 0.14 71 1010.2
20260507031556 61 0 0.0 6.0 0.00 0.14 0.14 69 1009.8
20260507030106 62 236 0.0 4.0 0.00 0.14 0.14 54 1010.1
20260507024621 62 257 1.0 6.0 0.00 0.14 0.14 54 1009.5
20260507023100 62 0 0.0 2.0 0.00 0.14 0.14 49 1009.3
20260507021616 63 0 1.0 7.0 0.00 0.14 0.14 46 1009.4
20260507020106 63 260 0.0 3.0 0.00 0.14 0.14 31 1009.6
20260507014614 63 0 0.0 1.0 0.00 0.14 0.14 41 1009.5
20260507013056 63 196 0.0 2.0 0.00 0.14 0.14 51 1009.7
20260507011556 64 0 1.0 3.0 0.00 0.14 0.14 58 1009.4
20260507010111 64 0 0.0 2.0 0.00 0.14 0.14 59 1009.4
20260507004556 64 0 0.0 0.0 0.00 0.14 0.14 60 1009.2
20260507003057 64 0 0.0 1.0 0.00 0.14 0.14 60 1009.1
20260507001605 64 0 1.0 4.0 0.00 0.14 0.14 59 1009.3
20260507000055 64 0 0.0 0.0 0.00 0.14 0.14 62 1008.7
20260506234558 64 0 0.0 2.0 0.00 0.14 0.14 65 1008.6
20260506233058 65 0 0.0 3.0 0.00 0.14 0.14 69 1008.4
20260506231557 65 89 0.0 5.0 0.00 0.14 0.14 69 1008.6
20260506230104 65 0 0.0 0.0 0.00 0.14 0.14 70 1008.8
20260506224557 66 152 1.0 6.0 0.00 0.14 0.14 71 1008.6
20260506223056 66 0 1.0 3.0 0.00 0.14 0.14 72 1008.6
20260506221556 66 109 1.0 5.0 0.00 0.14 0.14 73 1008.6
20260506220058 66 96 1.0 10.0 0.00 0.14 0.14 74 1008.6
20260506214555 66 165 3.0 7.0 0.00 0.14 0.14 74 1008.4
20260506213055 66 98 2.0 7.0 0.00 0.14 0.14 75 1008.3
20260506211557 67 136 2.0 11.0 0.00 0.14 0.14 74 1008.1
20260506210058 67 105 2.0 6.0 0.00 0.14 0.14 74 1008.1
20260506204557 66 84 2.0 7.0 0.00 0.14 0.14 75 1008.2
20260506203059 67 90 3.0 9.0 0.00 0.14 0.14 75 1008.0
20260506201620 68 229 2.0 11.0 0.00 0.14 0.14 75 1008.0
20260506194602 67 181 4.0 9.0 0.00 0.14 0.14 75 1007.9
20260506193106 66 129 4.0 15.0 0.00 0.14 0.14 72 1008.0
20260506191558 64 203 3.0 10.0 0.00 0.14 0.14 40 1008.3
20260506190100 63 184 4.0 11.0 0.00 0.14 0.14 5 1008.6
20260506184603 62 163 4.0 10.0 0.00 0.14 0.14 5 1008.6
20260506183101 62 221 3.0 9.0 0.00 0.14 0.14 5 1008.6
20260506181609 62 0 3.0 10.0 0.00 0.14 0.14 5 1009.1
20260506180057 61 176 3.0 9.0 0.00 0.14 0.14 6 1009.0
20260506174559 60 252 2.0 7.0 0.00 0.14 0.14 7 1009.0
20260506173128 60 84 4.0 9.0 0.00 0.14 0.14 7 1008.9
20260506171558 60 167 3.0 15.0 0.00 0.14 0.14 7 1009.1
20260506170147 60 104 3.0 11.0 0.00 0.14 0.14 7 1009.3
20260506164604 59 93 4.0 11.0 0.00 0.14 0.14 8 1009.3
20260506163109 60 70 5.0 16.0 0.01 0.14 0.14 10 1009.4
20260506161605 60 100 6.0 16.0 0.03 0.14 0.14 13 1009.5
20260506154605 59 175 4.0 14.0 0.07 0.14 0.14 22 1009.5
20260506153058 59 242 3.0 12.0 0.07 0.13 0.13 32 1010.1
20260506151558 60 195 4.0 12.0 0.07 0.11 0.11 40 1010.4
20260506150058 60 0 4.0 11.0 0.05 0.08 0.08 41 1010.4
20260506144559 60 0 3.0 9.0 0.06 0.07 0.07 43 1010.1
20260506143057 60 174 4.0 10.0 0.06 0.06 0.06 48 1010.1
20260506141558 60 84 3.0 10.0 0.04 0.04 0.04 54 1010.4
20260506134602 61 92 3.0 9.0 0.01 0.01 0.01 68 1010.4
20260506133102 62 120 3.0 10.0 0.00 0.00 0.00 73 1010.5
20260506131557 62 89 3.0 11.0 0.00 0.00 0.00 74 1010.1
20260506130055 62 94 3.0 10.0 0.00 0.00 0.00 73 1010.2
20260506124600 62 212 3.0 11.0 0.00 0.00 0.00 74 1010.4
20260506123057 62 108 2.0 13.0 0.00 0.00 0.00 75 1010.4
20260506121604 62 117 4.0 13.0 0.00 0.00 0.00 75 1010.6
20260506120111 63 151 5.0 14.0 0.00 0.00 0.00 75 1010.5
20260506114614 63 154 3.0 15.0 0.00 0.00 0.00 75 1010.2
20260506113057 62 176 6.0 14.0 0.00 0.00 0.00 75 1010.0
20260506111558 62 97 5.0 13.0 0.00 0.00 0.00 75 1010.0
20260506110058 62 200 5.0 11.0 0.00 0.00 0.00 75 1009.9
20260506104558 62 188 4.0 15.0 0.00 0.00 0.00 75 1009.9
20260506103057 62 79 7.0 18.0 0.00 0.00 0.00 75 1009.7
20260506101555 62 106 6.0 14.0 0.00 0.00 0.00 75 1009.7
20260506100059 62 135 2.0 13.0 0.00 0.00 0.00 75 1009.8
20260506094556 62 165 4.0 14.0 0.00 0.00 0.00 75 1009.8
20260506093111 62 77 5.0 13.0 0.00 0.00 0.00 75 1009.7
20260506091556 63 77 6.0 15.0 0.00 0.00 0.00 75 1009.8
20260506090126 63 144 6.0 14.0 0.00 0.00 0.00 75 1010.0
20260506084557 63 64 6.0 15.0 0.00 0.00 0.00 75 1010.1
20260506083100 63 96 8.0 17.0 0.00 0.00 0.00 75 1009.9
20260506081559 64 165 6.0 17.0 0.00 0.00 0.00 75 1010.0
20260506080110 64 89 5.0 14.0 0.00 0.00 0.00 74 1009.9
20260506073107 65 250 4.0 14.0 0.00 0.00 0.00 73 1010.1
20260506071600 66 180 5.0 13.0 0.00 0.00 0.00 71 1010.2
20260506061603 66 98 4.0 8.0 0.00 0.00 0.00 68 1010.5